Location: The C. Gantt Observatory
(33.6981°N, 81.6836°W)
Time: 20:07:32
(UTC-04:00)

Iridium 30 - Visible Passes

Search period start: 20 April 2014 00:00
Search period end: 30 April 2014 00:00
Orbit: 776 x 779 km, 86.4° (Epoch: 20 April)

Date Brightness Start Highest point End Pass type
(mag) Time Alt. Az. Time Alt. Az. Time Alt. Az.
20 Apr 8.3 02:25:20 10° N 02:26:00 14° N 02:26:00 14° N visible
21 Apr 8.4 01:52:11 10° NNE 01:52:34 12° NNE 01:52:34 12° NNE visible
22 Apr 8.2 02:59:12 10° NNW 02:59:35 12° NNW 02:59:35 12° NNW visible
23 Apr 8.2 02:25:24 10° N 02:26:09 14° N 02:26:09 14° N visible
24 Apr 8.3 01:52:00 10° N 01:52:43 14° NNE 01:52:43 14° NNE visible
25 Apr 8.4 01:19:03 10° NNE 01:19:17 11° NNE 01:19:17 11° NNE visible
25 Apr 8.3 02:59:41 10° NNW 02:59:45 10° NNW 02:59:45 10° NNW visible
26 Apr 8.2 02:25:36 10° NNW 02:26:19 14° NNW 02:26:19 14° NNW visible
27 Apr 8.2 01:51:58 10° N 01:52:54 16° N 01:52:54 16° N visible
28 Apr 8.2 01:18:43 10° NNE 01:19:29 14° NNE 01:19:29 14° NNE visible
29 Apr 8.4 00:46:01 10° NNE 00:46:04 10° NNE 00:46:04 10° NNE visible
29 Apr 8.2 02:25:57 10° NNW 02:26:32 13° NNW 02:26:32 13° NNW visible
